User: anonymous   Login
Location: Caltech
(34.1382°N, 118.1253°W)
Time: 14:46:08
(UTC-08:00)
Language:

Cosmos 1833 Rocket - Orbit

View from above orbital plane
View from above orbital plane
View from above satellite
View from above satellite

Ground track
Ground track

The orbit data is extracted from the following two-line orbital elements,

1 17590U 87027B   17321.13299097 -.00000229  00000-0 -90277-4 0  9994
2 17590  71.0021 187.9090 0002969  53.5209 306.6187 14.16749996585789
Epoch (UTC): 17 November 2017 03:11:30
Eccentricity: 0.0002969
inclination: 71.0021°
perigee height: 834 km
apogee height: 838 km
right ascension of ascending node: 187.9090°
argument of perigee: 53.5209°
revolutions per day: 14.16749996
mean anomaly at epoch: 306.6187°
orbit number at epoch: 58578

The dashed part of the orbit path shows where the satellite is in the earth's shadow,  

DLR